Location: Fluertsh�userhof
(48.7537°N, 10.3850°E)
Time: 07:33:35
(UTC+00:00)

Tsikada Rocket - Pass Details

Date: 18 September 2020
Orbit: 958 x 1009 km, 82.9° (Epoch: 24 October)

Event Time Altitude Azimuth Distance (km) Brightness Sun altitude
Rises 17:53:44 0° 349° (NNW) 3,657 7.3 -5.7°
Reaches altitude 10° 17:56:15 10° 347° (NNW) 2,704 6.6 -6.1°
Maximum altitude 18:02:23 71° 265° (W) 1,016 4.4 -7.1°
Drops below altitude 10° 18:08:28 10° 183° (S) 2,687 6.2 -8.1°
Sets 18:10:58 0° 181° (S) 3,633 6.9 -8.5°
